{"data":{"norad_id":65923,"epoch":"2026-05-25T01:28:17.138208Z","epoch_age_seconds":72979,"freshness":"FRESH","line1":"1 65923U 25225P   26145.06130947  .00012667  00000+0  43898-3 0  9995","line2":"2 65923  53.1597 170.7455 0001206  80.7362 279.3776 15.30206587 36109","mean_motion":15.30206587,"eccentricity":0.0001206,"inclination_deg":53.1597,"raan_deg":170.7455,"arg_perigee_deg":80.7362,"mean_anomaly_deg":279.3776,"bstar":0.00043898,"rev_number":3610,"period_min":94.1049406161,"perigee_km":474.36889000752,"apogee_km":476.02191378286,"semimajor_km":6853.3324018952,"source":"CELESTRAK","updated_at":"2026-05-25T13:38:20.988851Z"}}